TimeEDT,TemperatureF,Dew PointF,Humidity,Sea Level PressureIn,VisibilityMPH,Wind Direction,Wind SpeedMPH,Gust SpeedMPH,PrecipitationIn,Events,Conditions,WindDirDegrees,DateUTC
12:51 AM,57.9,55.0,90,30.01,7.0,SW,4.6,-,N/A,,Clear,220,2013-10-01 04:51:00
1:51 AM,57.9,55.0,90,30.02,5.0,SSW,4.6,-,N/A,,Clear,200,2013-10-01 05:51:00
2:51 AM,57.0,55.0,93,30.02,3.0,South,4.6,-,N/A,,Clear,190,2013-10-01 06:51:00
3:51 AM,55.9,55.0,97,30.02,3.0,South,4.6,-,N/A,,Scattered Clouds,180,2013-10-01 07:51:00
4:51 AM,57.9,55.9,93,30.03,3.0,South,4.6,-,N/A,,Mostly Cloudy,190,2013-10-01 08:51:00
5:35 AM,57.2,55.4,94,30.04,1.0,SSW,3.5,-,N/A,,Mostly Cloudy,210,2013-10-01 09:35:00
5:51 AM,57.9,55.9,93,30.04,2.0,Calm,Calm,-,N/A,,Scattered Clouds,0,2013-10-01 09:51:00
6:51 AM,57.0,55.0,93,30.06,2.0,South,4.6,-,N/A,,Scattered Clouds,190,2013-10-01 10:51:00
7:23 AM,55.4,53.6,94,30.07,1.2,South,3.5,-,N/A,,Scattered Clouds,190,2013-10-01 11:23:00
7:51 AM,57.0,55.0,93,30.07,0.5,South,4.6,-,N/A,Fog,Fog,190,2013-10-01 11:51:00
8:51 AM,61.0,59.0,93,30.08,0.5,SW,4.6,-,N/A,Fog,Fog,230,2013-10-01 12:51:00
8:53 AM,60.8,59.0,94,30.09,3.0,SW,4.6,-,N/A,,Scattered Clouds,230,2013-10-01 12:53:00
9:51 AM,64.9,60.1,84,30.09,3.0,West,6.9,-,N/A,,Haze,280,2013-10-01 13:51:00
10:51 AM,68.0,60.1,76,30.09,6.0,West,9.2,-,N/A,,Haze,260,2013-10-01 14:51:00
11:46 AM,71.6,60.8,69,30.09,7.0,SW,8.1,-,N/A,,Mostly Cloudy,230,2013-10-01 15:46:00
11:51 AM,70.0,61.0,73,30.08,7.0,WNW,9.2,-,N/A,,Mostly Cloudy,300,2013-10-01 15:51:00
12:51 PM,72.0,60.1,66,30.07,7.0,West,6.9,-,N/A,,Mostly Cloudy,280,2013-10-01 16:51:00
1:51 PM,75.0,60.1,60,30.04,7.0,WSW,8.1,-,N/A,,Mostly Cloudy,250,2013-10-01 17:51:00
2:51 PM,75.0,57.9,55,30.03,7.0,SW,10.4,-,N/A,,Scattered Clouds,230,2013-10-01 18:51:00
3:51 PM,75.0,57.9,55,30.01,8.0,SW,10.4,-,N/A,,Scattered Clouds,230,2013-10-01 19:51:00
4:51 PM,77.0,57.9,52,30.00,9.0,SSW,16.1,-,N/A,,Scattered Clouds,210,2013-10-01 20:51:00
5:51 PM,75.0,57.0,53,30.00,10.0,SW,6.9,-,N/A,,Scattered Clouds,230,2013-10-01 21:51:00
6:51 PM,71.1,57.9,63,30.01,9.0,SW,6.9,-,N/A,,Partly Cloudy,230,2013-10-01 22:51:00
7:51 PM,66.9,57.0,70,30.01,10.0,SW,5.8,-,N/A,,Clear,220,2013-10-01 23:51:00
8:51 PM,68.0,57.0,68,30.01,10.0,SW,4.6,-,N/A,,Clear,230,2013-10-02 00:51:00
9:51 PM,64.9,57.0,75,30.02,10.0,SW,4.6,-,N/A,,Clear,230,2013-10-02 01:51:00
10:51 PM,64.0,57.0,78,30.03,9.0,SW,4.6,-,N/A,,Clear,220,2013-10-02 02:51:00
11:51 PM,62.1,55.9,80,30.03,9.0,SW,5.8,-,N/A,,Clear,230,2013-10-02 03:51:00